Location: Buckland
(65.9785°N, 161.1281°W)
Time: 13:53:02
(UTC+00:00)

Transit 4A - Pass Details

Date: 12 October 2022
Orbit: 871 x 972 km, 66.8° (Epoch: 29 November)

Event Time Altitude Azimuth Distance (km) Brightness Sun altitude
Exits shadow 10:16:31 23° 76° (ENE) 1,815 9.4 -31.4°
Drops below altitude 10° 10:18:31 10° 77° (ENE) 2,545 10.3 -31.5°
Sets 10:20:59 0° 78° (ENE) 3,478 11.0 -31.5°
